FW2487 Weather Reports


Display with metric or nautical units.
time (UTC)temp
F
wind
direction
speed
MPH
gust
MPH
rain 1hr
in
rain 24hr
in
rain mn
in
humidity
%
barometer
mb
20260507104535 54 248 9.0 18.0 0.00 0.00 0.00 71 1018.4
20260507103036 54 251 8.0 23.0 0.00 0.00 0.00 71 1018.4
20260507101531 55 249 7.0 16.0 0.00 0.00 0.00 70 1018.5
20260507100045 55 254 8.0 17.0 0.00 0.00 0.00 69 1018.5
20260507094534 55 256 6.0 16.0 0.00 0.00 0.00 69 1018.6
20260507093037 55 247 4.0 13.0 0.00 0.00 0.00 69 1018.7
20260507091535 55 229 4.0 9.0 0.00 0.00 0.00 69 1018.7
20260507090035 56 224 5.0 14.0 0.00 0.00 0.00 69 1018.8
20260507084535 55 238 5.0 13.0 0.00 0.00 0.00 70 1019.1
20260507081536 56 208 4.0 8.0 0.00 0.00 0.00 70 1019.3
20260507080032 54 156 2.0 7.0 0.00 0.00 0.00 75 1019.3
20260507074534 53 48 1.0 5.0 0.00 0.00 0.00 77 1019.3
20260507073033 53 176 1.0 5.0 0.00 0.00 0.00 76 1019.2
20260507071607 55 312 1.0 4.0 0.00 0.00 0.00 72 1019.2
20260507070030 56 217 0.0 5.0 0.00 0.00 0.00 72 1019.2
20260507064607 56 236 0.0 4.0 0.00 0.00 0.00 71 1019.3
20260507063036 57 240 0.0 5.0 0.00 0.00 0.00 70 1019.4
20260507061534 56 212 3.0 8.0 0.00 0.00 0.00 71 1019.4
20260507060037 57 206 0.0 5.0 0.00 0.00 0.00 71 1019.5
20260507054535 57 261 2.0 7.0 0.00 0.00 0.00 71 1019.6
20260507053035 56 237 1.0 8.0 0.00 0.00 0.00 71 1019.6
20260507051535 56 174 1.0 4.0 0.00 0.00 0.00 70 1019.6
20260507050036 58 63 2.0 6.0 0.00 0.00 0.00 68 1019.6
20260507044534 58 278 4.0 10.0 0.00 0.00 0.00 66 1019.6
20260507043036 59 232 1.0 4.0 0.00 0.00 0.00 64 1019.4
20260507041535 59 255 3.0 8.0 0.00 0.00 0.00 63 1019.3
20260507040046 60 234 3.0 10.0 0.00 0.00 0.00 62 1019.3
20260507034534 60 233 5.0 10.0 0.00 0.00 0.00 61 1019.2
20260507033143 61 208 6.0 11.0 0.00 0.00 0.00 60 1019.2
20260507031536 61 223 5.0 12.0 0.00 0.00 0.00 59 1019.2
20260507024535 63 236 6.0 14.0 0.00 0.00 0.00 57 1019.2
20260507023036 65 257 9.0 18.0 0.00 0.00 0.00 55 1019.2
20260507021537 66 243 9.0 20.0 0.00 0.00 0.00 53 1019.0
20260507020107 67 234 6.0 8.0 0.00 0.00 0.00 52 1018.9
20260507014534 68 232 6.0 12.0 0.00 0.00 0.00 51 1018.7
20260507013108 67 248 8.0 18.0 0.00 0.00 0.00 51 1018.6
20260507011535 68 273 11.0 23.0 0.00 0.00 0.00 50 1018.7
20260507010036 68 277 10.0 21.0 0.00 0.00 0.00 49 1018.6
20260507004535 68 276 8.0 16.0 0.00 0.00 0.00 48 1018.5
20260507003037 70 282 8.0 17.0 0.00 0.00 0.00 46 1018.4
20260507001536 70 280 8.0 19.0 0.00 0.00 0.00 46 1018.2
20260507000035 70 286 8.0 20.0 0.00 0.00 0.00 48 1018.1
20260506233035 0 0 0.0 0.0 0.00 0.00 0.00 100
20260506230037 73 274 8.0 16.0 0.00 0.00 0.00 43 1017.9
20260506224534 74 258 7.0 16.0 0.00 0.00 0.00 44 1018.1
20260506221536 71 289 10.0 22.0 0.00 0.00 0.00 46 1018.3
20260506214533 71 289 12.0 24.0 0.00 0.00 0.00 46 1018.1
20260506213035 71 286 11.0 20.0 0.00 0.00 0.00 47 1018.0
20260506211533 71 277 14.0 21.0 0.00 0.00 0.00 47 1018.0
20260506210036 70 271 11.0 20.0 0.00 0.00 0.00 50 1018.1
20260506204534 70 276 10.0 23.0 0.00 0.00 0.00 49 1018.4
20260506203035 71 274 10.0 20.0 0.00 0.00 0.00 49 1018.3
20260506200034 70 270 10.0 21.0 0.00 0.00 0.00 51 1018.4
20260506193035 69 264 9.0 21.0 0.00 0.00 0.00 51 1018.4
20260506191536 69 277 10.0 20.0 0.00 0.00 0.00 53 1018.5
20260506190109 69 274 9.0 19.0 0.00 0.00 0.00 54 1018.5
20260506184608 68 287 10.0 18.0 0.00 0.00 0.00 56 1018.3
20260506183034 68 298 7.0 12.0 0.00 0.00 0.00 58 1018.3
20260506181530 67 297 9.0 16.0 0.00 0.00 0.00 57 1018.6
20260506180036 67 294 10.0 20.0 0.00 0.00 0.00 57 1018.6
20260506174534 68 273 12.0 20.0 0.00 0.00 0.00 54 1018.3
20260506171536 67 276 5.0 10.0 0.00 0.00 0.00 58 1018.1
20260506164535 64 292 7.0 12.0 0.00 0.00 0.00 62 1018.3
20260506163035 63 290 8.0 17.0 0.00 0.00 0.00 64 1018.9
20260506160118 62 290 11.0 22.0 0.00 0.00 0.00 65 1018.7
20260506153031 59 195 1.0 13.0 0.00 0.00 0.00 71 1018.7
20260506151535 58 175 2.0 4.0 0.00 0.00 0.00 73 1018.5
20260506150033 57 156 1.0 4.0 0.00 0.00 0.00 77 1018.8
20260506144536 55 163 0.0 3.0 0.00 0.00 0.00 82 1018.8
20260506141608 50 165 2.0 4.0 0.00 0.00 0.00 88 1018.6
20260506140038 49 157 2.0 5.0 0.00 0.00 0.00 87 1018.5
20260506134537 50 175 3.0 6.0 0.00 0.00 0.00 84 1018.3
20260506133036 51 228 6.0 15.0 0.00 0.00 0.00 88 1018.1
20260506131534 46 226 5.0 14.0 0.00 0.00 0.00 93 1018.0
20260506130032 45 163 2.0 6.0 0.00 0.00 0.00 100 1017.9
20260506124538 44 205 2.0 5.0 0.00 0.00 0.00 100 1017.7
20260506123033 44 156 3.0 6.0 0.00 0.00 0.00 100 1017.6
20260506121608 43 155 2.0 5.0 0.00 0.00 0.00 100 1017.4
20260506114534 44 157 2.0 4.0 0.00 0.00 0.00 93 1017.2
20260506111536 45 157 1.0 4.0 0.00 0.00 0.00 93 1017.0
20260506110106 45 170 3.0 5.0 0.00 0.00 0.00 93 1016.8